Flag for U.S.A. Weather past 2 weeks in Bryan – College Station, Texas, U.S.A.

Now
91 °F

Passing clouds.


Feels Like: 96 °F
Forecast: 75 / 94 °F
Wind: 9 mph from North

Location: Easterwood Field

Current Time: Jul 24, 2014 at 3:36:36 PM

Latest Report: Jul 24, 2014 at 2:53 PM


Visibility: 10 mi

Pressure: 29.98 "Hg

Humidity: 49%

Dew point: 69 °F

Location of Bryan – College StationLocation

Historic Weather in Bryan – College Station — Graph

°F

Bryan – College Station temperature yesterday

Maximum temperature yesterday: 92 °F (at 2:53 PM)
Minimum temperature yesterday: 77 °F (at 5:53 AM)
Average temperature yesterday: 85 °F

Past Weeks' High & Low Weather Summary

 TemperatureHumidityPressure
High96 °F (Jul 9, 4:53 PM)97% (Jul 10, 5:53 AM)30.17 "Hg (Jul 10, 5:53 AM)
Low70 °F (Jul 19, 5:53 AM)29% (Jul 9, 2:53 PM)29.80 "Hg (Jul 17, 4:53 PM)
Average82 °F71%29.99 "Hg
* Reported Jul 9 1:53 PM — Jul 24 1:53 PM, Bryan – College Station, Weather by CustomWeather, © 2014

Note: Actual official high and low records may vary slightly from our data, if they occured in-between our weather recording intervals... More about our weather records

Advertising

Bryan – College Station weather history for previous 24 hours

 ConditionsComfort  
Time TempWeatherWind HumidityBarometerVisibility
1:53 PM
Jul 24
90 °FSunny.6 mph50%29.99 "Hg10 mi
12:53 PM88 °FSunny.6 mph57%30.00 "Hg10 mi
11:53 AM85 °FSunny.6 mph63%30.03 "Hg10 mi
10:53 AM82 °FPassing clouds.No wind67%30.04 "Hg10 mi
9:53 AM81 °FSunny.6 mph67%30.04 "Hg10 mi
8:53 AM79 °FSunny.7 mph69%30.03 "Hg10 mi
7:53 AM77 °FSunny.12 mph74%30.02 "Hg10 mi
6:53 AM75 °FPassing clouds.9 mph79%30.01 "Hg10 mi
5:53 AM76 °FMostly cloudy.No wind80%29.99 "Hg10 mi
4:53 AM78 °FPassing clouds.6 mph71%29.98 "Hg10 mi
3:53 AM78 °FClear.3 mph71%29.97 "Hg10 mi
2:53 AM78 °FPassing clouds.No wind69%29.97 "Hg10 mi
1:53 AM78 °FClear.5 mph69%29.97 "Hg10 mi
12:53 AM78 °FClear.5 mph66%29.97 "Hg10 mi
11:53 PM
Jul 23
79 °FClear.7 mph62%29.99 "Hg10 mi
10:53 PM84 °FPassing clouds.21 mph63%30.02 "Hg10 mi
9:53 PM86 °FClear.14 mph59%30.03 "Hg10 mi
8:53 PM87 °FSunny.12 mph57%30.00 "Hg10 mi
7:53 PM88 °FSunny.6 mph52%29.95 "Hg10 mi
6:53 PM91 °FSunny.7 mph49%29.97 "Hg10 mi
5:53 PM92 °FSunny.6 mph47%29.95 "Hg10 mi
4:53 PM92 °FPartly sunny.5 mph47%29.96 "Hg10 mi
3:53 PM92 °FPassing clouds.3 mph47%30.00 "Hg10 mi
Weather by CustomWeather, © 2014

See weather overviewHow to use our weather pages